This demonstration page uses our WeatherBlox Daily Observations layout. Learn more.

Left ArrowRight Arrow

Hourly Observations for March 28, 2020

Temp ( °F °C ) Dew Point ( °F °C ) Humidity (%) Winds ( mph kmh ) Pressure ( in mb ) Visibility ( mi km ) Precip ( " mm )
12:53 am 00:53 Clear 34 1.1 26 -3.3 73 73 SSW 14 22 29.77 1008 10 16 N/A
1:53 am 01:53 Clear 34 1.1 26 -3.3 73 73 SSW 14 22 29.78 1008 10 16 N/A
2:53 am 02:53 Clear 35 1.7 24 -4.4 64 64 SW 15 24 29.77 1008 10 16 N/A
3:53 am 03:53 Clear 35 1.7 24 -4.4 64 64 SSW 15 24 29.78 1008 10 16 N/A
4:53 am 04:53 Clear 33 0.6 24 -4.4 70 70 SW 17 28 29.79 1009 10 16 N/A
5:53 am 05:53 Clear 32 undefined 23 -5 69 69 SW 10 17 29.80 1009 10 16 N/A
6:53 am 06:53 Clear 33 0.6 23 -5 66 66 SSW 17 28 29.83 1010 10 16 N/A
7:53 am 07:53 Sunny 34 1.1 24 -4.4 67 67 SW 15 24 29.85 1011 10 16 N/A
8:53 am 08:53 Sunny 39 3.9 25 -3.9 57 57 SW 18 30 29.85 1011 10 16 N/A
9:53 am 09:53 Sunny 43 6.1 26 -3.3 51 51 WSW 20 31 29.85 1011 10 16 N/A
10:08 am 10:08 Hazy 45 7 27 -3 49 49 WSW 20 31 29.85 1011 2 2 N/A
10:23 am 10:23 Sunny 45 7.2 27 -2.8 49 49 WSW 20 31 29.85 1011 10 16 N/A
10:53 am 10:53 Sunny 47 8.3 28 -2.2 48 48 W 15 24 29.86 1011 10 16 N/A
11:53 am 11:53 Sunny 51 10.6 28 -2.2 41 41 W 13 20 29.87 1012 10 16 N/A
12:53 pm 12:53 Sunny 53 11.7 28 -2.2 38 38 W 15 24 29.86 1011 10 16 N/A
1:53 pm 13:53 Sunny 54 12.2 26 -3.3 34 34 WNW 10 17 29.85 1011 10 16 N/A
2:53 pm 14:53 Sunny 56 13.3 25 -3.9 30 30 W 13 20 29.83 1010 10 16 N/A
3:53 pm 15:53 Mostly Sunny 56 13.3 26 -3.3 32 32 W 17 28 29.83 1010 10 16 N/A
4:53 pm 16:53 Mostly Cloudy 57 13.9 26 -3.3 30 30 W 13 20 29.83 1010 10 16 N/A
5:53 pm 17:53 Mostly Cloudy 56 13.3 26 -3.3 32 32 WSW 15 24 29.84 1011 10 16 N/A
6:53 pm 18:53 Cloudy 51 10.6 29 -1.7 43 43 WSW 12 19 29.86 1011 10 16 N/A
7:53 pm 19:53 Mostly Cloudy 44 6.7 31 -0.6 60 60 SW 10 17 29.87 1012 10 16 N/A
8:53 pm 20:53 Partly Cloudy 42 5.6 31 -0.6 65 65 SW 13 20 29.87 1012 10 16 N/A
9:53 pm 21:53 Clear 39 3.9 29 -1.7 67 67 NNW 5 7 29.88 1012 10 16 N/A
10:53 pm 22:53 Clear 36 2.2 27 -2.8 70 70 SSW 7 11 29.88 1012 10 16 N/A
11:53 pm 23:53 Clear 35 1.7 27 -2.8 72 72 SW 8 13 29.88 1012 10 16 N/A

Powered by AerisWeather